[[{"header":{"parameterUnit":"m.s-1","parameterCategory":1,"la1":30.2991,"la2":30.254,"lo1":-89.0895,"lo2":-89.0444,"dy":0.0017,"dx":0.0017,"nx":28,"ny":28,"refTime":"2025-06-17T03:00:00:Z","depth":0,"parameterNumber":2,"parameterNumberName":"U-component_of_WINDS"},"data":[0,0,0,0,0,0,0,0,0,0,0,0,0,0,0,0,0,0,0,0,0,0,0,0,0,0,0,0,0,0,0,0,0,0,0,0,0,0,0,0,0,0,0,0,0,0,0,0,0,0,0,0,0,0,0,0,0,0,-0.7242,-0.7241,0,-0.7172,-0.7171,-0.7171,-0.7144,-0.7144,-0.7145,-0.7145,-0.7071,-0.7069,-0.7066,0,0,0,0,0,0,0,0,0,0,0,0,0,-0.7351,-0.7349,-0.7242,-0.7241,-0.724,-0.7172,-0.7171,-0.717,-0.7144,-0.7144,-0.7145,-0.7145,-0.7071,-0.7069,-0.7066,0,0,0,0,0,0,0,0,0,0,0,0,0,-0.7295,-0.7349,-0.7242,-0.7219,-0.7216,-0.7173,-0.7171,-0.717,-0.7144,-0.7144,-0.7145,-0.7145,-0.7072,-0.7069,-0.7066,-0.7039,0,0,-0.7056,-0.7054,0,0,0,0,0,0,0,0,-0.7298,-0.7291,-0.7223,-0.7221,-0.7217,-0.7167,-0.7183,-0.7126,-0.7144,-0.7171,-0.7145,-0.7145,-0.7102,-0.7097,-0.7083,-0.7036,-0.7032,-0.7056,-0.7054,-0.7052,-0.7051,0,0,0,0,0,0,0,-0.7302,-0.7294,-0.7214,-0.7222,-0.7219,-0.7212,-0.7204,-0.7172,-0.7136,-0.7169,-0.7167,-0.7159,-0.7101,-0.7086,-0.7081,-0.7031,-0.7056,-0.7053,-0.7051,-0.705,-0.696,-0.6959,0,0,0,0,0,0,-0.731,-0.7297,-0.7217,-0.7212,-0.7259,-0.7209,-0.7201,-0.7183,-0.7136,-0.7129,-0.7159,-0.7158,-0.7091,-0.7085,-0.7078,-0.7044,-0.7052,-0.7049,-0.7047,-0.696,-0.6959,-0.6959,0,0,0,0,0,0,-0.7312,-0.7303,-0.7219,-0.7254,-0.7243,-0.7207,-0.7187,-0.7181,-0.7167,-0.7129,-0.7122,-0.7151,-0.7091,-0.7083,-0.7049,-0.7041,-0.7048,-0.7045,-0.696,-0.696,-0.6959,-0.6975,0,0,0,0,0,0,-0.7316,-0.7304,-0.7294,-0.7254,-0.7241,-0.7192,-0.7187,-0.718,-0.7161,-0.716,-0.7119,-0.7112,-0.7091,-0.7054,-0.7046,-0.7037,-0.7042,-0.6961,-0.696,-0.6959,-0.6975,-0.6975,-0.6975,0,0,0,0,0,-0.732,-0.73,-0.7293,-0.7284,-0.7228,-0.7192,-0.7184,-0.7161,-0.7161,-0.715,-0.7126,-0.7114,-0.7044,-0.7051,-0.7042,-0.7031,-0.6961,-0.696,-0.6959,-0.6975,-0.6975,-0.6975,0,0,0,0,0,0,-0.7339,-0.7295,-0.7286,-0.7254,-0.7227,-0.7187,-0.7173,-0.7161,-0.7133,-0.7133,-0.7104,-0.7095,-0.7064,-0.7044,-0.7054,-0.7003,-0.7002,-0.6999,-0.7017,-0.7017,-0.7017,-0.7022,-0.7039,0,0,0,0,0,-0.734,-0.7315,-0.7277,-0.7252,-0.7239,-0.7209,-0.7192,-0.7177,-0.7147,-0.7135,-0.7108,-0.708,-0.7051,-0.7033,-0.7005,-0.6973,-0.6964,-0.6961,-0.6961,-0.6961,-0.6959,-0.6941,-0.6939,-0.6956,-0.6956,-0.6956,0,0,-0.734,-0.7313,-0.7299,-0.7255,-0.7233,-0.7207,-0.7199,-0.7172,-0.7153,-0.7131,-0.7098,-0.7078,-0.7044,-0.7011,-0.6995,-0.6994,-0.6952,-0.696,-0.696,-0.6958,-0.694,-0.6938,-0.6937,-0.6955,-0.6955,-0.6955,0,0,-0.7328,-0.7306,-0.7282,-0.726,-0.7226,-0.7206,-0.7201,-0.7163,-0.7149,-0.7116,-0.7099,-0.7076,-0.7027,-0.7004,-0.6986,-0.6967,-0.6955,-0.6959,-0.6958,-0.6941,-0.694,-0.6938,-0.6931,-0.6929,-0.6956,-0.6957,-0.6957,0,-0.7333,-0.7295,-0.7272,-0.7246,-0.7227,-0.7208,-0.7184,-0.7163,-0.7122,-0.7109,-0.7108,-0.7048,-0.7023,-0.6985,-0.6981,-0.6967,-0.696,-0.6963,-0.6942,-0.694,-0.6939,-0.6932,-0.6929,-0.6957,-0.6957,-0.6957,-0.6957,0,-0.7302,-0.7276,-0.7261,-0.7223,-0.7203,-0.7178,-0.7151,-0.7133,-0.712,-0.71,-0.7067,-0.7038,-0.7003,-0.6993,-0.6979,-0.6953,-0.6953,-0.6948,-0.6945,-0.6938,-0.6931,-0.6928,-0.6958,-0.6958,-0.6958,-0.6958,0,0,-0.7299,-0.725,-0.7244,-0.7227,-0.7189,-0.7168,-0.7143,-0.711,-0.7096,-0.7068,-0.7046,-0.7006,-0.7001,-0.698,-0.6964,-0.6949,-0.6936,-0.6945,-0.6944,-0.6944,-0.6906,-0.691,-0.6907,-0.6928,-0.6928,-0.6927,-0.6909,0,-0.7282,-0.7236,-0.7216,-0.7179,-0.7155,-0.7137,-0.7115,-0.7089,-0.707,-0.7046,-0.7025,-0.6997,-0.6992,-0.698,-0.6965,-0.6941,-0.6928,-0.6942,-0.6907,-0.6906,-0.6915,-0.6904,-0.6908,-0.6892,-0.6906,-0.6905,-0.6905,0,-0.7255,-0.7229,-0.7191,-0.7156,-0.7145,-0.7126,-0.7095,-0.7073,-0.7043,-0.703,-0.7009,-0.6993,-0.6966,-0.6967,-0.6928,-0.6938,-0.6923,-0.6909,-0.6908,-0.6903,-0.6904,-0.6898,-0.6886,-0.6883,-0.69,-0.6901,-0.6901,0,-0.7257,-0.7212,-0.7183,-0.7169,-0.7128,-0.7115,-0.7097,-0.7068,-0.705,-0.7023,-0.7011,-0.6981,-0.6964,-0.6941,-0.6918,-0.6921,-0.6882,-0.6881,-0.687,-0.6871,-0.6862,-0.6863,-0.6847,-0.6853,-0.6853,-0.6853,-0.6853,0,-0.7239,-0.7216,-0.7183,-0.7165,-0.7139,-0.7116,-0.7091,-0.7072,-0.7046,-0.7024,-0.7007,-0.6986,-0.6957,-0.6933,-0.6915,-0.6886,-0.6879,-0.6867,-0.6863,-0.6868,-0.687,-0.6857,-0.6858,-0.6853,-0.6853,-0.6853,-0.6853,0,-0.7236,-0.7213,-0.718,-0.7145,-0.7136,-0.7118,-0.7088,-0.707,-0.7051,-0.7023,-0.7016,-0.6985,-0.6956,-0.6931,-0.6893,-0.688,-0.6851,-0.6845,-0.6861,-0.6858,-0.6849,-0.685,-0.6823,-0.6819,-0.6829,-0.6829,-0.6829,0,-0.7226,-0.7208,-0.7171,-0.7156,-0.7139,-0.7114,-0.7096,-0.7073,-0.7055,-0.7021,-0.7007,-0.6977,-0.6952,-0.6906,-0.688,-0.6851,-0.6844,-0.6837,-0.6839,-0.6846,-0.6844,-0.6845,-0.6843,-0.6836,-0.6836,-0.6836,-0.6837,0,-0.721,-0.72,-0.7175,-0.7147,-0.7126,-0.7103,-0.7078,-0.7067,-0.7039,-0.7019,-0.699,-0.6971,-0.6932,-0.6902,-0.687,-0.6852,-0.6839,-0.6836,-0.6832,-0.6838,-0.6847,-0.6842,-0.686,-0.6837,-0.6837,-0.6837,-0.6837,-0.6837,-0.7203,-0.7186,-0.7159,-0.7132,-0.7111,-0.7089,-0.7071,-0.7051,-0.7026,-0.6993,-0.6981,-0.6951,-0.6923,-0.6879,-0.686,-0.6836,-0.6834,-0.6829,-0.6827,-0.6826,-0.6827,-0.6852,-0.6831,-0.683,-0.683,-0.683,-0.683,0,-0.7186,-0.7168,-0.7144,-0.7111,-0.709,-0.7082,-0.7055,-0.7038,-0.7012,-0.6987,-0.6963,-0.693,-0.6901,-0.6874,-0.6844,-0.683,-0.6824,-0.6823,-0.6823,-0.6819,-0.683,-0.6837,-0.6829,-0.6829,-0.6829,-0.6829,-0.6829,-0.6829,-0.7175,-0.7147,-0.7134,-0.7096,-0.7077,-0.7049,-0.7034,-0.7014,-0.6994,-0.6958,-0.6934,-0.6917,-0.6891,-0.686,-0.6833,-0.6826,-0.6816,-0.6816,-0.6808,-0.6818,-0.6818,-0.6819,-0.6825,-0.6814,-0.6814,-0.6798,-0.6798,-0.6798]},{"header":{"parameterUnit":"m.s-1","parameterCategory":1,"la1":30.2991,"la2":30.254,"lo1":-89.0895,"lo2":-89.0444,"dy":0.0017,"dx":0.0017,"nx":28,"ny":28,"refTime":"2025-06-17T03:00:00:Z","depth":0,"parameterNumber":3,"parameterNumberName":"V-component_of_WINDS"},"data":[0,0,0,0,0,0,0,0,0,0,0,0,0,0,0,0,0,0,0,0,0,0,0,0,0,0,0,0,0,0,0,0,0,0,0,0,0,0,0,0,0,0,0,0,0,0,0,0,0,0,0,0,0,0,0,0,0,0,5.7845,5.7845,0,5.7873,5.7873,5.7874,5.7813,5.7811,5.7809,5.7807,5.7832,5.7835,5.7837,0,0,0,0,0,0,0,0,0,0,0,0,0,5.7733,5.7736,5.7845,5.7845,5.7845,5.7873,5.7873,5.7874,5.7813,5.7811,5.7808,5.7806,5.7831,5.7834,5.7837,0,0,0,0,0,0,0,0,0,0,0,0,0,5.7774,5.7737,5.7845,5.7819,5.7816,5.7873,5.7873,5.7874,5.7814,5.7811,5.7808,5.7805,5.783,5.7834,5.7838,5.7919,0,0,5.7849,5.7851,0,0,0,0,0,0,0,0,5.7772,5.7778,5.7822,5.782,5.7818,5.7836,5.7843,5.7889,5.7814,5.7815,5.7807,5.7804,5.7836,5.7839,5.785,5.7921,5.7922,5.7849,5.7852,5.7853,5.7854,0,0,0,0,0,0,0,5.7769,5.7776,5.7856,5.7823,5.782,5.7804,5.7806,5.7852,5.7841,5.7814,5.781,5.7814,5.7834,5.7847,5.7851,5.7922,5.7849,5.7853,5.7855,5.7856,5.806,5.8063,0,0,0,0,0,0,5.777,5.7774,5.7855,5.7857,5.7787,5.7808,5.7811,5.7833,5.784,5.7839,5.7817,5.7811,5.7842,5.7846,5.7851,5.7947,5.7853,5.7857,5.7859,5.8057,5.806,5.8064,0,0,0,0,0,0,5.7768,5.7778,5.7854,5.7814,5.7823,5.7813,5.7839,5.7836,5.7848,5.7842,5.784,5.7832,5.784,5.7846,5.7903,5.7947,5.7858,5.7862,5.8053,5.8058,5.8062,5.8139,0,0,0,0,0,0,5.7765,5.7777,5.7809,5.7816,5.7825,5.7907,5.7842,5.7838,5.7856,5.7849,5.7856,5.7855,5.7838,5.7898,5.7907,5.795,5.7865,5.8049,5.8055,5.8061,5.8132,5.8146,5.8157,0,0,0,0,0,5.7761,5.7829,5.7811,5.7821,5.7865,5.7909,5.7914,5.7895,5.7859,5.7891,5.7887,5.7854,5.7941,5.7904,5.7914,5.7959,5.8046,5.8053,5.806,5.8127,5.8143,5.8157,0,0,0,0,0,0,5.7827,5.7829,5.781,5.7882,5.7896,5.7899,5.7938,5.7913,5.7936,5.7929,5.7902,5.7905,5.7966,5.7968,5.7928,5.8038,5.7987,5.7996,5.8034,5.805,5.8062,5.806,5.7868,0,0,0,0,0,5.785,5.7887,5.7887,5.795,5.7959,5.7947,5.7966,5.795,5.7962,5.7968,5.7968,5.798,5.801,5.803,5.8057,5.8133,5.8133,5.8168,5.8181,5.8191,5.8199,5.8238,5.8253,5.8087,5.8087,5.8087,0,0,5.7898,5.7904,5.7928,5.7964,5.7973,5.801,5.7953,5.7995,5.8021,5.7973,5.8027,5.8028,5.804,5.8107,5.8136,5.811,5.8245,5.82,5.8208,5.8211,5.8247,5.8262,5.8276,5.8092,5.8091,5.809,0,0,5.8004,5.8013,5.8066,5.8077,5.8091,5.8083,5.8097,5.8103,5.8102,5.8156,5.8121,5.8152,5.8204,5.8214,5.8226,5.8336,5.8306,5.8345,5.8409,5.8447,5.846,5.8472,5.851,5.8524,5.8353,5.8354,5.8354,0,5.8061,5.8117,5.8097,5.8142,5.8157,5.8117,5.8171,5.8181,5.8203,5.8215,5.8186,5.825,5.8256,5.8323,5.835,5.8362,5.8375,5.8344,5.846,5.8472,5.8482,5.8518,5.8533,5.8358,5.8358,5.8357,5.8357,0,5.8186,5.8225,5.8267,5.8291,5.8311,5.836,5.8346,5.8369,5.8351,5.8346,5.8401,5.8406,5.8433,5.8448,5.8431,5.8514,5.8497,5.8465,5.8413,5.8503,5.8536,5.855,5.8365,5.8363,5.8362,5.8361,0,0,5.8333,5.8346,5.8361,5.8371,5.8385,5.8414,5.846,5.8488,5.8508,5.8525,5.8562,5.8607,5.8578,5.8591,5.8574,5.8608,5.8694,5.8572,5.8572,5.8593,5.8783,5.8807,5.8823,5.8675,5.8677,5.8679,5.8782,0,5.8437,5.8518,5.8502,5.8581,5.8616,5.8578,5.8618,5.863,5.8627,5.8655,5.865,5.8682,5.8641,5.8649,5.8681,5.8677,5.8731,5.8669,5.8708,5.8709,5.8705,5.8841,5.8866,5.8962,5.8795,5.8797,5.8799,0,5.8569,5.8592,5.8675,5.8683,5.8697,5.8733,5.8757,5.8785,5.8797,5.8792,5.8808,5.8784,5.8829,5.8778,5.8838,5.8796,5.8811,5.8811,5.8814,5.8816,5.8759,5.8845,5.8993,5.9007,5.8819,5.8818,5.8816,0,5.8667,5.8719,5.8775,5.8785,5.8795,5.8821,5.8826,5.8836,5.8853,5.8874,5.8885,5.891,5.8923,5.8943,5.8926,5.8891,5.8989,5.8936,5.8984,5.8985,5.9006,5.9005,5.9157,5.9018,5.9017,5.9017,5.9017,0,5.8784,5.8836,5.8819,5.8853,5.891,5.889,5.8946,5.8946,5.8955,5.8988,5.8956,5.8988,5.8965,5.8994,5.8981,5.9032,5.9039,5.9035,5.9031,5.9037,5.9037,5.9045,5.9038,5.9021,5.902,5.9019,5.9019,0,5.8903,5.8894,5.8952,5.8957,5.896,5.9001,5.9005,5.9036,5.903,5.9072,5.908,5.9071,5.9103,5.9089,5.9123,5.9114,5.918,5.9167,5.9176,5.9172,5.9221,5.9216,5.9383,5.9403,5.9252,5.9253,5.9255,0,5.8978,5.9017,5.9027,5.9047,5.9055,5.9088,5.9106,5.9087,5.9107,5.9124,5.9153,5.9183,5.9205,5.9259,5.9254,5.9279,5.9266,5.9323,5.927,5.9275,5.9266,5.9263,5.9266,5.9333,5.9335,5.9336,5.9338,0,5.9112,5.9105,5.9133,5.916,5.9183,5.9202,5.9219,5.9237,5.9219,5.9242,5.9276,5.9294,5.9329,5.9358,5.9381,5.9384,5.9358,5.9355,5.9367,5.9373,5.9376,5.9374,5.9204,5.9351,5.9349,5.9348,5.9348,5.9347,5.921,5.9242,5.9254,5.9286,5.9297,5.9314,5.9343,5.9342,5.9369,5.9397,5.9384,5.9422,5.9433,5.946,5.9468,5.9496,5.9474,5.9492,5.9496,5.9501,5.9507,5.9373,5.95,5.95,5.95,5.9499,5.9499,0,5.9341,5.9347,5.9376,5.9401,5.9426,5.9401,5.9418,5.944,5.9475,5.9487,5.951,5.9548,5.9577,5.9575,5.9601,5.9624,5.9612,5.9631,5.9629,5.963,5.9526,5.9512,5.964,5.964,5.964,5.964,5.964,5.964,5.9412,5.9466,5.9461,5.9519,5.9524,5.9562,5.9574,5.9589,5.9598,5.9642,5.9666,5.9665,5.9672,5.9698,5.9722,5.9721,5.9731,5.9755,5.9749,5.9651,5.9637,5.9624,5.9611,5.9757,5.9758,5.985,5.9851,5.9851]}]]